Powrót do katalogu

COSMOS 1909

AktywnyMilitariaPO
NORAD 18788·PAYLOAD·🇷🇺 Russia

Wystrzelony Jan 15, 1988 z Plesetsk Cosmodrome

Loading…

Następne Przeloty (najbliższe 24 godziny)

TLE

ŚwieżeSource: Space-Track

Epoka: Sep 14, 2026, 09:05 UTC

1 18788U 88002A   26257.37864038  .00000005  00000-0 -32242-4 0  9994
2 18788  82.6103 220.7141 0002782 103.7805  51.4872 12.62872500782067

Śledź COSMOS 1909 w czasie rzeczywistym z AllMySat

Download on the App Store